• Join FlightAware (Why Join?)
  • Login
  • US Flag 
04:09AM EDT


 

Airport Tracker/Info


-or-


 

Live Flight TrackerFlight Track Log ✈ CTL17 ✈ 09-May-2013 ✈ KYIP - KBKL

Flight Track Log - Related Links

Times and Time Zones

All times are in EDT time to prevent confusion due to time zone crossing. See the CTL17 flight status page for this flight to view local times or setup timezone preferences in your user account.

Time Position Orientation Groundspeed Altitude Reporting Facility
EDT Latitude Longitude Course Direction KTS MPH feet Rate Location/Type
05:50PM 42.2094 -83.5436 223° Southwest 129 148 1,500  Level Cleveland Center
05:51PM 42.1733 -83.5700 208° Southwest 142 163 2,200 480 Climbing Cleveland Center
05:52PM 42.1369 -83.6017 213° Southwest 154 177 2,600 360 Climbing Cleveland Center
05:53PM 42.0933 -83.5942 173° South 153 176 3,000 180 Climbing Cleveland Center
05:54PM 42.0458 -83.5864 173° South 162 186 3,000  Level Cleveland Center
05:55PM 42.0003 -83.5731 168° South 167 192 3,000  Level Cleveland Center
05:56PM 41.9831 -83.5108 110° East 172 198 3,000  Level Cleveland Center
05:57PM 41.9658 -83.4483 110° East 168 193 3,000  Level Cleveland Center
05:58PM 41.9506 -83.3919 110° East 172 198 3,000  Level Cleveland Center
05:59PM 41.9333 -83.3297 110° East 171 197 3,000 120 Level Cleveland Center
06:00PM 41.9161 -83.2675 110° East 172 198 3,300 420 Climbing Cleveland Center
06:01PM 41.8967 -83.2025 112° Southeast 167 192 3,900 480 Climbing Cleveland Center
06:02PM 41.8853 -83.1492 106° East 168 193 4,300 420 Climbing Cleveland Center
06:03PM 41.8722 -83.0872 106° East 170 196 4,800 300 Climbing Cleveland Center
06:04PM 41.8547 -83.0253 111° Southeast 173 199 5,000 120 Climbing Cleveland Center
06:05PM 41.8392 -82.9717 111° Southeast 181 208 5,100  Climbing Cleveland Center
06:06PM 41.8236 -82.9156 110° East 187 215 5,100  Level Cleveland Center
06:07PM 41.8061 -82.8564 112° Southeast 180 207 5,100  Level Cleveland Center
06:08PM 41.7925 -82.7972 107° East 182 209 5,100  Level Cleveland Center
06:09PM 41.7731 -82.7325 112° Southeast 181 208 5,100  Level Cleveland Center
06:10PM 41.7597 -82.6681 105° East 181 208 5,100  Level Cleveland Center
06:11PM 41.7461 -82.6064 106° East 181 208 5,100 -300 Level Cleveland Center
06:12PM 41.7286 -82.5364 108° East 189 217 4,600 -540 Descending Cleveland Center
06:13PM 41.7089 -82.4633 110° East 196 226 4,100 -540 Descending Cleveland Center
06:14PM 41.6892 -82.3961 111° Southeast 194 223 3,600 -540 Descending Cleveland Center
06:15PM 41.6736 -82.3317 108° East 194 223 3,100 -300 Descending Cleveland Center
06:16PM 41.6558 -82.2644 109° East 178 205 3,100 -120 Level Cleveland Center
06:17PM 41.6419 -82.2058 108° East 172 198 2,900 -300 Descending Cleveland Center
06:18PM 41.6367 -82.1389 96° East 186 214 2,600 -420 Descending Cleveland Center
06:19PM 41.6272 -82.0667 100° East 179 206 2,100 -300 Descending Cleveland Center
06:20PM 41.6197 -82.0053 99° East 170 196 2,100  Level Cleveland Center
06:21PM 41.6100 -81.9439 102° East 164 189 2,100 -240 Level Cleveland Center
06:22PM 41.5878 -81.8881 118° Southeast 175 201 1,700 -300 Descending Cleveland Center
06:23PM 41.5592 -81.8347 126° Southeast 173 199 1,600 -60 Descending Cleveland Center
06:24PM 41.5367 -81.7842 121° Southeast 157 181 1,600  Level Cleveland Center
06:25PM 41.5142 -81.7394 124° Southeast 149 171 1,600  Level Cleveland Center
06:27PM 41.5175 -81.6833 90° East  Level Estimated
06:34PM 41.5175 -81.6833 90° East  Level Estimated